Location: Newark
(35.2672°N, 80.7344°W)
Time: 14:00:09
(UTC+00:00)

Tiros 1 - Pass Details

Date: 23 January 2020
Orbit: 631 x 664 km, 48.4° (Epoch: 22 February)

Event Time Altitude Azimuth Distance (km) Brightness Sun altitude
Rises 00:42:39 0° 309° (NW) 2,983 11.2 -24.8°
Reaches altitude 10° 00:45:02 10° 313° (NW) 2,073 10.2 -25.3°
Enters shadow 00:48:38 45° 343° (NNW) 898 7.8 -26.0°
Maximum altitude 00:49:46 58° 33° (NNE) 772 - -26.2°
Drops below altitude 10° 00:54:29 10° 113° (ESE) 2,074 - -27.2°
Sets 00:56:52 0° 117° (ESE) 2,984 - -27.7°
